Racecast

None

None · 4828m · Boys · Men's 3 Mile Run · 2013-09-14

Course difficulty: —

View full meet →

Team scores

Place Team Points 12345 67
1 Sundown (TX) 38 4 5 8 9 12 22 36
2 Lubbock Cooper (TX) 75 2 6 10 13 44 59 66
3 Friona (TX) 96 1 16 24 25 30 47 49
4 Sudan (TX) 133 11 14 26 37 45 55 62
5 Muleshoe (TX) 154 18 21 31 38 46 67 75
6 Idalou (TX) 165 19 23 33 34 56 70 80
7 Denver City (TX) 192 15 29 43 51 54 57 63
8 Lamesa (TX) 235 3 7 50 82 93 95 96
9 Seminole (TX) 236 17 20 58 69 72 78 79
10 Lenorah Grady (TX) 242 27 40 42 52 81 83 92
11 Ackerly Sands (TX) 243 32 35 39 64 73
12 Olton (TX) 325 41 53 68 76 87 89 91
13 Post (WA) 354 48 61 74 85 86
14 Wellman-Union (TX) 364 28 65 84 90 97
15 Whiteface (TX) 390 60 71 77 88 94 98

Computed: five scorers, two displacers, incomplete teams removed. Not scored, fewer than five finishers: Plains (TX) (4), Slaton (4), Tahoka (4), Christ The King Cathedral (4), Bovina (3), Hale Center (3), Morton (IL) (3), Ralls (2), Brownfield (2), Morton (TX) (2), Anton (2), Welch Dawson (1), Post (TX) (1), Seminole (CA) (1), Ropesville Ropes (1), Cotton Center (1), Earth Springlake (1).

Results

Rating scale ?
Place Athlete Grade School Time Rating Points
1 Samuel Wing Ralls (TX) 1 17:12.8
2 Armando Flores 2014 Friona (TX) 1 17:26.7 1
3 KC Hart 2016 Lubbock Cooper (TX) 1 17:39.3 2
4 Andrew Rueda 2017 Lamesa (TX) 1 17:53.6 3
5 Bo Thoms 2016 Sundown (TX) 1 17:54.9 PR 4
6 David Mendoza 2016 Sundown (TX) 2 17:55.7 PR 5
7 Miguel Guerrero 2016 Brownfield (TX) 1 18:16.4 PR 111.5
8 Travis Knapp 2014 Lubbock Cooper (TX) 2 18:18 6
9 Jaime Cueto 2017 Plains (TX) 1 18:18.4 PR
10 Abraham Morales 2015 Lamesa (TX) 2 18:22 PR 110.9 7
11 Matthew Nichols 2016 Sundown (TX) 3 18:31.1 PR 8
12 Pedro Dominguez 2015 Bovina (TX) 1 18:33.2 PR 109.8
13 Justin Hinojosa 2017 Sundown (TX) 4 18:34.9 9
14 Payton Romero 2014 Lubbock Cooper (TX) 3 18:37.8 10
15 Omar Vasquez 2014 Sudan (TX) 1 18:41 11
16 Omar Guardiola 2015 Sundown (TX) 5 18:41.6 PR 12
17 Mason Cain 2016 Lubbock Cooper (TX) 4 18:42.5 13
18 Kort Hill 2014 Sudan (TX) 2 18:44.7 PR 14
19 Isaac Yanez 2017 Denver City (TX) 1 18:49.2 PR 108.2 15
20 Abel Palacios 2014 Friona (TX) 2 18:54.4 PR 16
21 Ian Diaz 2017 Seminole (TX) 1 19:02.2 17
22 Jesus Manzanares 2016 Muleshoe (TX) 1 19:05 PR 106.7 18
23 Tharon Woodard 2015 Idalou (TX) 1 19:06.5 PR 106.6 19
24 Michael Condarco 2014 Seminole (TX) 2 19:06.9 PR 20
25 Mario Flores 2017 Muleshoe (TX) 2 19:18.4 21
26 Triston Davis 2015 Sundown (TX) 6 19:20.3 22
27 Josh Castro 2014 Idalou (TX) 2 19:20.8 23
28 Salvador Santiago 2017 Friona (TX) 3 19:24.9 24
29 Daniel Pena 2017 Friona (TX) 4 19:25.2 25
30 Manuel Rosales Ralls (TX) 2 19:25.7
31 Jelmer Vanderlei 2014 Sudan (TX) 3 19:30 PR 104.5 26
32 Kyle Garza 2016 Lenorah Grady (TX) 1 19:34.6 27
33 Edward Chavez 2016 Wellman-Union (TX) 1 19:41.8 28
34 Anthony Torres 2017 Slaton (TX) 1 19:43.4 PR
35 Luke Maxwell 2016 Denver City (TX) 2 19:45.7 PR 103.1 29
36 Juan Macias 2016 Friona (TX) 5 19:50.6 30
37 Evan Paez 2017 Muleshoe (TX) 3 19:53 PR 31
38 Juan Diaz 2017 Ackerly Sands (TX) 1 19:53.2 PR 102.4 32
39 Ben McGeehee 2016 Idalou (TX) 3 19:54.3 33
40 Lickie Forkpa 2015 Idalou (TX) 4 19:58.5 34
41 Jorge Pena 2014 Ackerly Sands (TX) 2 20:01.4 35
42 Javier Lopez 2016 Morton (IL) 1 20:02.2 PR 36
43 Antonio Lopez 2016 Sundown (TX) 7 20:06.3 37
44 Alejandro Hinojosa 2016 Sundown (TX) 8 20:08.1
45 Alex Rodriguez 2017 Sudan (TX) 4 20:11.1 38
46 Aaryn Ross 2016 Muleshoe (TX) 4 20:12.5 39
47 Leonard Martinez 2017 Ackerly Sands (TX) 3 20:13.6 PR 40
48 Edrei Trejo 2017 Lenorah Grady (TX) 2 20:15.8 PR 41
49 Jonathan Soder 2017 Hale Center (TX) 1 20:17.4
50 Luke Fleenor 2016 Tahoka (TX) 1 20:20.7
51 Carlos Perez Olton (TX) 1 20:21.5 42
52 Gerardo Carrion 2017 Sundown (TX) 9 20:22 PR
53 Jason Amaya 2016 Hale Center (TX) 2 20:22.3 PR
54 Brandon Chavez 2014 Morton (IL) 2 20:23.1 43
55 Joel Cueto 2017 Slaton (TX) 2 20:24 PR 99.8
56 Zach Green 2016 Sundown (TX) 10 20:24.9
57 Daniel Lara 2017 Bovina (TX) 2 20:27.6 PR
58 Devynn Smith 2017 Lenorah Grady (TX) 3 20:28.7 PR 44
59 David Zubiate 2014 Denver City (TX) 3 20:29.1 PR 99.4 45
60 Samuel Higgings 2016 Lubbock Cooper (TX) 5 20:29.8 46
61 Jordan Garcia 2017 Slaton (TX) 3 20:32.9 PR 99.1
62 Tommy Whitehurst 2014 Sudan (TX) 5 20:34.5 PR 47
63 Noah Del Toro 2015 Muleshoe (TX) 5 20:35.5 PR 98.9 48
64 Jacob Harrison 2016 Friona (TX) 6 20:40.3 49
65 Josiel Delgadillo 2015 Post (WA) 1 20:42.2 50
66 Edwin Garcia 2017 Friona (TX) 7 20:48.4 51
67 Vela Jesse 2017 Lamesa (TX) 3 20:49.8 52
68 Eric Esclante 2017 Denver City (TX) 4 20:50 PR 97.8 53
69 Carlos Flores 2017 Lenorah Grady (TX) 4 20:52.3 54
70 Ty Hardrick 2016 Anton (TX) 1 20:54.7
71 Jacob Garza Olton (TX) 2 20:56.8 55
72 Mattheu De la rosa 2017 Welch Dawson (TX) 1 20:59.6 PR
73 Angel Loya 2015 Denver City (TX) 5 21:01.2 56
74 Jose Rocha 2014 Friona (TX) 8 21:03.7
75 Branden Locke 2015 Sudan (TX) 6 21:06.8 PR 57
76 Armando Vigil 2016 Morton (IL) 3 21:07.4 PR 58
77 Bryce Mojica 2017 Idalou (TX) 5 21:07.8 59
78 Kristian Dominguez 2014 Denver City (TX) 6 21:08.8 60
79 Andy DelaRosa 2016 Seminole (TX) 3 21:11.9 61
80 James Clary 2015 Lubbock Cooper (TX) 6 21:15.7 62
81 Trevor Drennon 2016 Whiteface (TX) 1 21:16.1 PR 95.8 63
82 Paxton Nava 2017 Post (WA) 2 21:17.1 64
83 Treg Box 2017 Sudan (TX) 7 21:17.8 PR 91.2 65
84 Aaron Salcido 2015 Denver City (TX) 7 21:18.7 66
85 Sergio Plata 2015 Ackerly Sands (TX) 4 21:19.4 PR 67
86 Vincent Tedford 2015 Wellman-Union (TX) 2 21:20 PR 68
87 Adam Woods 2016 Lubbock Cooper (TX) 7 21:21.4 69
88 Josh Duran 2016 Brownfield (TX) 2 21:24.7
89 Javy Perez 2017 Muleshoe (TX) 6 21:25.3 70
90 Dyllan Livesay Olton (TX) 3 21:26 PR 71
91 Skyler Franklin 2016 Seminole (TX) 4 21:27.2 72
92 Jeremy Binion 2016 Sudan (TX) 8 21:27.7 PR
93 Sean Porras 2014 Lubbock Cooper (TX) 8 21:32.4 PR 94.6
94 Jose DeLuna 2017 Post (WA) 3 21:33.9 PR 94.5 73
95 Ricky Medrano 2016 Slaton (TX) 4 21:37 PR
96 Justin Garcia 2014 Idalou (TX) 6 21:38.5 74
97 Andres Perez 2017 Friona (TX) 9 21:41.8
98 Justus Brozek 2015 Bovina (TX) 3 21:42.1 PR 93.9
99 Jeffrey Young 2017 Whiteface (TX) 2 21:43 75
100 Jarryd Karr 2017 Seminole (TX) 5 21:46.4 PR 76
101 Joshua Pekowski 2014 Christ The King Cathedral (TX) 1 21:48.1 SR 93.4
102 Brandon Clary 2017 Lubbock Cooper (TX) 9 21:48.4
103 Saul Davalos 2014 Hale Center (TX) 3 21:49.5 PR
104 Jesus Lozoya 2015 Sudan (TX) 9 21:50.6
105 Eric Garcia 2017 Ackerly Sands (TX) 5 21:51.7 PR 77
106 Isaah Jones 2016 Post (WA) 4 21:54.4 78
107 Luis Herrera 2016 Muleshoe (TX) 7 22:05 79
108 Abel Burciaga 2017 Denver City (TX) 8 22:08.1
109 Seth Salinas Olton (TX) 4 22:08.4 80
110 Frank Friessen 2016 Whiteface (TX) 3 22:09.4 81
111 Estevan Rocha 2015 Friona (TX) 10 22:10.4
112 Ramon Juarez 2014 Seminole (TX) 6 22:15.3 82
113 Jesse Carillo 2014 Seminole (TX) 7 22:17.3 PR 83
114 Aaron Campos 2017 Anton (TX) 2 22:19.7 PR 91.2
115 Raul Trevino 2017 Muleshoe (TX) 8 22:22.5
116 Evan Manzano 2017 Seminole (TX) 8 22:25.4 PR
117 Tye Williams 2016 Idalou (TX) 7 22:29.1 84
118 Cole Avery Lenorah Grady (TX) 5 22:32.3 85
119 Anthony Gipson 2016 Lamesa (TX) 4 22:32.9 PR 86
120 Nick Garcia 2016 Tahoka (TX) 2 22:33.8
121 Jalon Salazar 2017 Denver City (TX) 9 22:34.5 PR
122 Roman Reyna 2017 Lenorah Grady (TX) 6 22:35.7 87
123 Sean Deleon 2017 Tahoka (TX) 3 22:43.2
124 Andrew Marrufo 2014 Morton (IL) 4 22:43.4 88
125 Luis Escobedo 2017 Wellman-Union (TX) 3 22:45.1 PR 89
126 Skyler Harris 2014 Friona (TX) 11 22:47
127 Jake Holtman 2017 Ropesville Ropes (TX) 1 22:49.5 PR
128 Preston Trimble 2017 Lubbock Cooper (TX) 10 23:04
129 Anthony Esparza 2017 Post (WA) 5 23:05.8 90
130 Keegan Stanley 2017 Post (WA) 6 23:07.4 91
131 Daniel Templeton 2015 Cotton Center (TX) 1 23:11.7 PR 87.8
132 Jose Acevedo 2016 Morton (IL) 5 23:23 92
133 David Martinez 2015 Friona (TX) 12 23:26.6
134 Gilbert Diaz Olton (TX) 5 23:30 93
135 Jeremiah Morales 2016 Whiteface (TX) 4 24:18.4 PR 94
136 Saldivar Castenado Olton (TX) 6 24:22.4 95
137 Tim Perez 2017 Muleshoe (TX) 9 24:22.7
138 Trever Locklin 2015 Plains (TX) 2 24:24.9
139 Esau Macias 2017 Wellman-Union (TX) 4 24:36 PR 96
140 Jonny Jenkins Olton (TX) 7 24:38.6 97
141 Kevin Bravo Olton (TX) 8 24:47.9
142 Mathew Balderas 2016 Lenorah Grady (TX) 7 25:02.4 98
143 Tim Reid 2014 Christ The King Cathedral (TX) 2 25:02.8
144 Brock McWhirter 2015 Plains (TX) 3 25:07.5 PR
145 Joseph Munoz 2014 Tahoka (TX) 4 25:13.3
146 Tommy Livesay Olton (TX) 9 25:13.8
147 Kyle Branson 2016 Lamesa (TX) 5 25:27.9 PR 99
148 Alex Villanueva 2016 Whiteface (TX) 5 25:35.9 100
149 Bryce McWhirter 2017 Plains (TX) 4 25:36.3 PR
150 Bryce Waight 2015 Christ The King Cathedral (TX) 3 25:45.8 SR
151 Jonathan Renaux Lamesa (TX) 6 26:05.7 101
152 Charles Bradfute 2016 Earth Springlake (TX) 1 26:19.1
153 Tristan Martinez 2014 Christ The King Cathedral (TX) 4 26:59.8
154 Rudy Alvarado 2015 Lamesa (TX) 7 27:38.2 102
155 Parker Lewis 2016 Wellman-Union (TX) 5 27:42.4 103
156 Keyvan Constantino 2017 Whiteface (TX) 6 29:42.1 PR 104
Something wrong on this page? Report it →